Weather History for KHFJ - November, 2013

Change the Weather History Date:

Thursday, November 21, 2013

  Actual Average (KJLN) Record (KJLN)
Temperature  
Mean Temperature 44 °F 46 °F  
Max Temperature 53 °F 56 °F 75 °F (1966)
Min Temperature 35 °F 36 °F 16 °F (1964)
Degree Days  
Heating Degree Days 21 19  
Month to date heating degree days 311  
Since 1 July heating degree days 563  
Cooling Degree Days 0 0  
Month to date cooling degree days 5  
Year to date cooling degree days 1696  
Moisture  
Dew Point 46 °F    
Average Humidity 90    
Maximum Humidity 100    
Minimum Humidity 50    
Precipitation  
Precipitation 0.80 in 0.11 in 0.76 in (1979)
Month to date precipitation 2.70  
Year to date precipitation 42.65  
Sea Level Pressure  
Sea Level Pressure 30.08 in    
Wind  
Wind Speed 6 mph (ESE)    
Max Wind Speed 17 mph    
Max Gust Speed 23 mph    
Visibility 6 miles    
Events Rain , Thunderstorm    
T = Trace of Precipitation, MM = Missing Value Source: NWS Daily Summary

Daily Weather History Graph

Daily Weather History Graph

Search for Another Location

Airport or City:

Trip Planner

Search our weather history database for the weather conditions in past years. The results will help you decide how hot, cold, wet, or windy it might be!

Date:

Astronomy

Nov. 21, 2013 Rise Set
Actual Time 7:00 AM CST 5:02 PM CST
Civil Twilight 6:32 AM CST 5:30 PM CST
Nautical Twilight 6:01 AM CST 6:02 PM CST
Astronomical Twilight 5:30 AM CST 6:33 PM CST
Moon 8:39 PM CST (11/21) 10:08 AM CST (11/21)
Length of Visible Light 10h 58m
Length of Day
10h 01m
Waning Gibbous, 85% of the Moon is Illuminated
Nov 21
Waning Gibbous
Nov 25
Last Quarter
Dec 2
New
Dec 9
First Quarter
Dec 17
Full

Hourly Weather History & Observations

Time (CST) Temp. Windchill Dew Point Humidity Pressure Visibility Wind Dir Wind Speed Gust Speed Precip Events Conditions
12:15 AM 51.8 °F - 33.8 °F 50% 29.97 in 10.0 mi SE 6.9 mph - N/A   Overcast
12:35 AM 51.8 °F - 35.6 °F 54% 29.98 in 10.0 mi SE 4.6 mph - N/A   Overcast
12:55 AM 53.6 °F - 35.6 °F 51% 29.99 in 10.0 mi Calm Calm - N/A   Overcast
1:15 AM 53.6 °F - 35.6 °F 51% 30.00 in 10.0 mi SSE 3.5 mph - N/A   Overcast
1:35 AM 53.6 °F - 37.4 °F 54% 30.00 in 10.0 mi SSE 5.8 mph - N/A   Overcast
1:55 AM 53.6 °F - 37.4 °F 54% 30.00 in 10.0 mi SE 4.6 mph - N/A   Overcast
2:15 AM 53.6 °F - 39.2 °F 58% 30.00 in 10.0 mi SE 8.1 mph - N/A   Overcast
2:35 AM 53.6 °F - 39.2 °F 58% 30.00 in 10.0 mi SE 8.1 mph - N/A   Overcast
2:55 AM 53.6 °F - 41.0 °F 62% 30.00 in 10.0 mi SSE 8.1 mph - N/A   Overcast
3:15 AM 53.6 °F - 41.0 °F 62% 29.99 in 10.0 mi SSE 9.2 mph - N/A   Overcast
3:35 AM 53.6 °F - 42.8 °F 67% 29.99 in 10.0 mi South 15.0 mph 19.6 mph N/A   Overcast
3:55 AM 53.6 °F - 44.6 °F 72% 30.00 in 10.0 mi South 8.1 mph - N/A   Overcast
4:15 AM 51.8 °F - 44.6 °F 76% 30.01 in 10.0 mi SSE 8.1 mph - N/A   Overcast
4:35 AM 51.8 °F - 44.6 °F 76% 30.01 in 10.0 mi South 11.5 mph - N/A   Overcast
4:55 AM 51.8 °F - 44.6 °F 76% 30.01 in 10.0 mi SSE 8.1 mph - N/A   Overcast
5:15 AM 51.8 °F - 44.6 °F 76% 30.01 in 10.0 mi SE 6.9 mph - N/A   Overcast
5:35 AM 51.8 °F - 44.6 °F 76% 30.02 in 10.0 mi SSE 4.6 mph - N/A   Overcast
5:55 AM 50.0 °F - 44.6 °F 82% 30.03 in 10.0 mi NNW 3.5 mph - N/A   Light Drizzle
6:15 AM 50.0 °F - 46.4 °F 87% 30.03 in 10.0 mi ESE 3.5 mph - N/A Rain Light Rain
6:35 AM 48.2 °F - 46.4 °F 93% 30.01 in 4.0 mi ESE 4.6 mph - 0.06 in Rain Rain
6:55 AM 48.2 °F - 48.2 °F 100% 30.03 in 4.0 mi SE 5.8 mph - 0.17 in Rain Heavy Rain
7:15 AM 48.2 °F - 46.4 °F 93% 30.02 in 5.0 mi ESE 5.8 mph - 0.05 in Rain Rain
7:35 AM 46.4 °F 42.9 °F 46.4 °F 100% 30.03 in 3.0 mi ESE 6.9 mph - 0.17 in Rain Heavy Rain
7:55 AM 46.4 °F 42.9 °F 46.4 °F 100% 30.05 in 10.0 mi NNW 6.9 mph - 0.26 in Thunderstorm Thunderstorm
8:15 AM 46.4 °F 45.2 °F 46.4 °F 100% 30.06 in 10.0 mi North 3.5 mph - N/A Thunderstorm Overcast
8:35 AM 46.4 °F 45.2 °F 46.4 °F 100% 30.06 in 7.0 mi ENE 3.5 mph - N/A   Overcast
8:55 AM 48.2 °F - 46.4 °F 93% 30.06 in 7.0 mi NNE 4.6 mph - 0.01 in Rain Rain
9:15 AM 48.2 °F - 46.4 °F 93% 30.08 in 2.0 mi North 5.8 mph - 0.09 in Rain Heavy Rain
9:35 AM 46.4 °F 44.3 °F 46.4 °F 100% 30.08 in 2.5 mi NE 4.6 mph - 0.15 in Rain Rain
9:55 AM 48.2 °F - 48.2 °F 100% 30.08 in 5.0 mi East 4.6 mph - 0.17 in Rain Rain
10:15 AM 48.2 °F - 48.2 °F 100% 30.07 in 7.0 mi ESE 8.1 mph - N/A   Overcast
10:35 AM 48.2 °F - 48.2 °F 100% 30.08 in 7.0 mi ESE 5.8 mph - 0.01 in Rain Rain
10:55 AM 48.2 °F - 48.2 °F 100% 30.07 in 5.0 mi ESE 9.2 mph - 0.06 in Rain Rain
11:15 AM 48.2 °F - 48.2 °F 100% 30.06 in 4.0 mi ESE 8.1 mph - 0.01 in Rain Rain
11:35 AM 48.2 °F - 48.2 °F 100% 30.06 in 3.0 mi SE 8.1 mph - 0.07 in Rain , Thunderstorm Heavy Thunderstorms and Rain
11:55 AM 50.0 °F - 48.2 °F 94% 30.05 in 5.0 mi SE 5.8 mph - 0.09 in Rain , Thunderstorm Thunderstorms and Rain
12:15 PM 50.0 °F - 50.0 °F 100% 30.05 in 7.0 mi ESE 4.6 mph - N/A   Drizzle
12:35 PM 50.0 °F - 50.0 °F 100% 30.05 in 5.0 mi ESE 4.6 mph - 0.01 in Rain , Thunderstorm Rain
12:55 PM 50.0 °F - 50.0 °F 100% 30.05 in 4.0 mi ESE 6.9 mph - 0.03 in Rain Light Rain
1:15 PM 50.0 °F - 50.0 °F 100% 30.04 in 7.0 mi SE 9.2 mph - N/A   Drizzle
1:35 PM 50.0 °F - 50.0 °F 100% 30.05 in 10.0 mi ESE 6.9 mph - N/A   Overcast
1:55 PM 50.0 °F - 50.0 °F 100% 30.05 in 10.0 mi ESE 5.8 mph - N/A   Overcast
2:15 PM 50.0 °F - 50.0 °F 100% 30.04 in 10.0 mi ESE 5.8 mph - N/A   Overcast
2:35 PM 50.0 °F - 50.0 °F 100% 30.05 in 10.0 mi ESE 6.9 mph - N/A   Overcast
2:55 PM 50.0 °F - 50.0 °F 100% 30.05 in 10.0 mi SE 5.8 mph - N/A   Overcast
3:15 PM 50.0 °F - 50.0 °F 100% 30.05 in 10.0 mi ESE 6.9 mph - N/A   Overcast
3:35 PM 50.0 °F - 50.0 °F 100% 30.06 in 10.0 mi ESE 5.8 mph - N/A   Overcast
3:55 PM 50.0 °F - 50.0 °F 100% 30.08 in 10.0 mi Calm Calm - N/A   Overcast
4:15 PM 50.0 °F - 50.0 °F 100% 30.08 in 10.0 mi East 3.5 mph - N/A   Overcast
4:35 PM 50.0 °F - 50.0 °F 100% 30.09 in 1.8 mi Calm Calm - N/A   Overcast
4:55 PM 50.0 °F - 50.0 °F 100% 30.09 in 3.0 mi ESE 4.6 mph - N/A   Overcast
5:15 PM 50.0 °F - 50.0 °F 100% 30.10 in 4.0 mi Calm Calm - N/A   Overcast
5:35 PM 50.0 °F - 50.0 °F 100% 30.11 in 4.0 mi Calm Calm - N/A   Overcast
5:55 PM 50.0 °F - 50.0 °F 100% 30.12 in 7.0 mi Calm Calm - N/A   Overcast
6:15 PM 50.0 °F - 50.0 °F 100% 30.13 in 5.0 mi Calm Calm - N/A   Overcast
6:35 PM 50.0 °F - 50.0 °F 100% 30.14 in 4.0 mi Calm Calm - N/A   Overcast
6:55 PM 50.0 °F - 50.0 °F 100% 30.14 in 1.5 mi Calm Calm - N/A   Overcast
7:15 PM 50.0 °F - 50.0 °F 100% 30.15 in 1.2 mi Calm Calm - N/A Rain Rain
7:35 PM 50.0 °F - 50.0 °F 100% 30.15 in 1.8 mi Calm Calm - N/A   Drizzle
7:55 PM 50.0 °F - 50.0 °F 100% 30.16 in 2.0 mi Calm Calm - 0.01 in   Overcast
8:15 PM 50.0 °F - 50.0 °F 100% 30.18 in 2.0 mi Calm Calm - N/A   Overcast
8:35 PM 46.4 °F 40.1 °F 46.4 °F 100% 30.20 in 2.5 mi NW 15.0 mph - N/A   Overcast
8:55 PM 44.6 °F 39.2 °F 44.6 °F 100% 30.21 in 2.5 mi NW 10.4 mph 13.8 mph N/A   Drizzle
9:15 PM 44.6 °F 37.4 °F 44.6 °F 100% 30.21 in 2.5 mi NNW 16.1 mph 21.9 mph N/A   Light Drizzle
9:35 PM 42.8 °F 36.2 °F 42.8 °F 100% 30.22 in 4.0 mi NNW 12.7 mph 17.3 mph N/A   Overcast
9:55 PM 42.8 °F 35.4 °F 42.8 °F 100% 30.22 in 4.0 mi NNW 15.0 mph 20.7 mph N/A   Overcast
10:15 PM 42.8 °F 36.6 °F 42.8 °F 100% 30.24 in 4.0 mi NNW 11.5 mph - N/A   Overcast
10:35 PM 41.0 °F 33.5 °F 41.0 °F 100% 30.25 in 4.0 mi NNW 13.8 mph - N/A   Overcast
10:55 PM 37.4 °F 27.8 °F 37.4 °F 100% 30.27 in 3.0 mi NW 17.3 mph 20.7 mph N/A   Overcast
11:15 PM 37.4 °F 28.2 °F 37.4 °F 100% 30.27 in 4.0 mi NNW 16.1 mph 23.0 mph N/A   Overcast
11:35 PM 35.6 °F 26.6 °F 35.6 °F 100% 30.28 in 3.0 mi NNW 13.8 mph - N/A   Overcast
11:55 PM 35.6 °F 27.1 °F 35.6 °F 100% 30.29 in 3.0 mi NNW 12.7 mph - N/A   Overcast